This demonstration page uses our WeatherBlox Daily Observations layout. Learn more.

Hourly Observations for December 7, 2019

Temp ( °F °C ) Dew Point ( °F °C ) Humidity (%) Winds ( mph kmh ) Pressure ( in mb ) Visibility ( mi km ) Precip ( " mm )
12:15 am 00:15 Clear 32 -0.1 26 -3.1 80 80 SW 8 13 30.33 1027 10 16.0934 0 0
12:35 am 00:35 Clear 32 0 27 -3 80 80 SSW 9 15 30.32 1027 10 16.0934 0 0
12:55 am 00:55 Clear 31 -0.3 27 -3 82 82 SSW 8 13 30.32 1027 10 16.0934 0 0
1:15 am 01:15 Clear 32 -0.2 28 -2.5 85 85 SW 9 15 30.31 1026 10 16.0934 0 0
1:35 am 01:35 Clear 32 -0.1 28 -2 87 87 SW 9 15 30.3 1026 10 16.0934 0 0
1:55 am 01:55 Clear 32 0 29 -1.9 87 87 SW 8 13 30.3 1026 10 16.0934 0 0
2:15 am 02:15 Clear 32 0 29 -1.5 90 90 SW 13 20 30.29 1026 10 16.0934 0 0
2:35 am 02:35 Clear 33 0.3 30 -1.2 90 90 SW 12 19 30.28 1025 10 16.0934 0 0
2:55 am 02:55 Clear 32 0.2 30 -1.1 91 91 SW 10 17 30.28 1026 10 16.0934 0 0
3:15 am 03:15 Clear 32 0 29 -1.4 90 90 SW 10 17 30.29 1026 10 16.0934 0 0
3:35 am 03:35 Clear 32 -0.1 30 -1.3 92 92 SW 8 13 30.28 1025 10 16.0934 0 0
3:55 am 03:55 Clear 32 -0.1 30 -1.2 92 92 SW 7 11 30.27 1025 10 16.0934 0 0
4:15 am 04:15 Clear 32 0 30 -1 93 93 SW 7 11 30.26 1025 10 16.0934 0 0
4:35 am 04:35 Clear 32 0 30 -1 93 93 SW 9 15 30.26 1025 10 16.0934 0 0
4:55 am 04:55 Clear 32 0 30 -1 93 93 SSW 12 19 30.26 1025 10 16.0934 0 0
5:15 am 05:15 Clear 31 -0.6 29 -1.6 93 93 SSW 8 13 30.26 1025 10 16.0934 0 0
5:35 am 05:35 Clear 30 -1 29 -1.7 95 95 SSW 9 15 30.25 1025 10 16.0934 0 0
5:55 am 05:55 Clear 30 -1 29 -1.7 95 95 SSW 7 11 30.24 1024 10 16.0934 0 0
6:15 am 06:15 Clear 30 -1 29 -1.8 94 94 SSW 7 11 30.24 1024 10 16.0934 0 0
6:35 am 06:35 Clear 31 -0.7 29 -1.5 94 94 S 9 15 30.23 1024 10 16.0934 0 0
6:55 am 06:55 Clear 31 -0.5 30 -1.2 95 95 S 10 17 30.23 1024 10 16.0934 0 0
7:15 am 07:15 Clear 31 -0.5 29 -1.5 93 93 S 10 17 30.23 1024 10 16.0934 0 0
7:35 am 07:35 Clear 31 -0.8 29 -1.7 94 94 S 12 19 30.22 1023 10 16.0934 0 0
7:55 am 07:55 Sunny 30 -1.1 28 -2 94 94 S 13 20 30.22 1023 10 16.0934 0 0
8:15 am 08:15 Sunny 29 -1.5 28 -2.2 95 95 S 9 15 30.21 1023 10 16.0934 0 0
8:35 am 08:35 Sunny 30 -1.3 28 -2 95 95 S 8 13 30.21 1023 7 11.26538 0 0
8:55 am 08:55 Sunny 30 -1 29 -1.9 94 94 S 9 15 30.2 1023 7 11.26538 0 0
9:15 am 09:15 Sunny 32 0 30 -1.1 92 92 S 9 15 30.19 1022 7 11.26538 0 0
9:35 am 09:35 Sunny 34 1 31 -0.5 90 90 S 13 20 30.18 1022 10 16.0934 0 0
9:55 am 09:55 Sunny 35 1.5 32 0 90 90 S 12 19 30.17 1022 10 16.0934 0 0
10:15 am 10:15 Sunny 36 2 32 0 87 87 S 12 19 30.16 1021 10 16.0934 0 0
10:35 am 10:35 Sunny 38 3.2 33 0.7 84 84 SSW 12 19 30.13 1020 10 16.0934 0 0
10:55 am 10:55 Sunny 38 3.6 33 0.7 82 82 S 13 20 30.12 1020 10 16.0934 0 0
11:15 am 11:15 Sunny 40 4.5 34 1.2 79 79 SSW 13 20 30.11 1020 10 16.0934 0 0
11:35 am 11:35 Sunny 42 5.4 35 1.5 76 76 SSW 18 30 30.08 1019 10 16.0934 0 0
11:55 am 11:55 Sunny 43 6 35 1.8 75 75 SSW 18 30 30.06 1018 10 16.0934 0 0
12:15 pm 12:15 Sunny 45 7 36 2.3 72 72 SSW 18 30 30.04 1017 10 16.0934 0 0
12:35 pm 12:35 Sunny 46 7.6 37 2.5 70 70 S 16 26 30.02 1017 10 16.0934 0 0
12:55 pm 12:55 Sunny 47 8.3 37 2.7 68 68 S 17 28 30 1016 10 16.0934 0 0
1:15 pm 13:15 Sunny 47 8.5 37 2.6 67 67 S 20 31 29.98 1015 10 16.0934 0 0
1:35 pm 13:35 Sunny 49 9.2 37 2.8 65 65 S 16 26 29.95 1014 10 16.0934 0 0
1:55 pm 13:55 Sunny 50 10 38 3.2 63 63 S 16 26 29.93 1014 10 16.0934 0 0
2:15 pm 14:15 Sunny 51 10.6 38 3.4 61 61 S 18 30 29.92 1013 10 16.0934 0 0
2:35 pm 14:35 Sunny 52 11 38 3.5 60 60 S 20 31 29.9 1013 10 16.0934 0 0
2:55 pm 14:55 Sunny 53 11.4 38 3.5 59 59 S 20 31 29.89 1012 10 16.0934 0 0
3:15 pm 15:15 Sunny 53 11.4 38 3.6 59 59 S 20 31 29.88 1012 10 16.0934 0 0
3:35 pm 15:35 Sunny 52 11.1 38 3.5 60 60 S 18 30 29.88 1012 10 16.0934 0 0
3:55 pm 15:55 Sunny 52 11 38 3.6 61 61 S 17 28 29.88 1012 10 16.0934 0 0
4:15 pm 16:15 Sunny 52 10.9 39 3.7 61 61 S 15 24 29.86 1011 10 16.0934 0 0
4:35 pm 16:35 Sunny 51 10.7 39 3.8 63 63 S 13 20 29.87 1011 10 16.0934 0 0
4:55 pm 16:55 Sunny 50 10.2 38 3.6 64 64 S 14 22 29.87 1012 10 16.0934 0 0
5:15 pm 17:15 Clear 49 9.5 38 3.5 66 66 S 13 20 29.89 1012 10 16.0934 0 0
5:35 pm 17:35 Clear 48 8.7 38 3.2 69 69 S 10 17 29.9 1013 10 16.0934 0 0
5:55 pm 17:55 Clear 47 8.1 37 3 71 71 S 8 13 29.92 1013 10 16.0934 0 0
6:15 pm 18:15 Clear 45 7.2 37 2.5 72 72 S 10 17 29.92 1013 10 16.0934 0 0
6:35 pm 18:35 Clear 44 6.6 37 2.5 75 75 S 10 17 29.92 1013 10 16.0934 0 0
6:55 pm 18:55 Clear 43 5.9 36 2.1 77 77 SSW 9 15 29.93 1014 10 16.0934 0 0
7:15 pm 19:15 Clear 41 5.1 35 1.8 79 79 SW 3 6 29.95 1014 10 16.0934 0 0
7:35 pm 19:35 Clear 41 5 35 1.7 79 79 S 6 9 29.95 1014 10 16.0934 0 0
7:55 pm 19:55 Clear 43 6 36 2.2 77 77 SSW 13 20 29.93 1013 10 16.0934 0 0
8:15 pm 20:15 Clear 45 7.4 37 2.7 72 72 SSW 14 22 29.91 1013 10 16.0934 0 0
8:35 pm 20:35 Clear 44 6.5 36 2.3 75 75 SSW 15 24 29.91 1013 10 16.0934 0 0
8:55 pm 20:55 Clear 44 6.5 36 2.3 75 75 SSW 10 17 29.91 1013 10 16.0934 0 0
9:15 pm 21:15 Clear 42 5.8 36 2.1 77 77 S 10 17 29.91 1013 10 16.0934 0 0
9:35 pm 21:35 Clear 41 5 35 1.8 80 80 SSW 7 11 29.92 1013 10 16.0934 0 0
9:55 pm 21:55 Clear 41 4.8 35 1.8 81 81 SSW 7 11 29.92 1013 10 16.0934 0 0
10:15 pm 22:15 Clear 40 4.3 35 1.6 83 83 SSW 8 13 29.91 1013 10 16.0934 0 0
10:35 pm 22:35 Clear 39 4 35 1.5 84 84 SSW 6 9 29.93 1013 10 16.0934 0 0
10:55 pm 22:55 Clear 38 3.5 34 1.3 86 86 SSW 7 11 29.92 1013 10 16.0934 0 0
11:15 pm 23:15 Clear 37 3 34 1 87 87 S 7 11 29.93 1013 10 16.0934 0 0
11:35 pm 23:35 Clear 37 2.8 34 0.9 87 87 Calm 29.92 1013 10 16.0934 0 0
11:55 pm 23:55 Clear 38 3.1 34 0.9 86 86 SSW 8 13 29.91 1013 10 16.0934 0 0

Powered by AerisWeather